When you browse on this site, cookies collect data to enhance your experience and personalize the content and advertising you see.
Visit our Privacy Policy to learn more. By continuing to use the site, you agree to this use of cookies and data.
  • In Denmark
  • List of Countries
  • For 7 days
  • Water Temperature
  • Satellite Maps
  • Weather Map
  • Weather Widgets
  • user-avatar
    Login

    Hourly Weather Tafilah

    Today, 25 April, Thursday

    Time Temperature Precipitation Wind Pressure Humidity
    00:00 +20°C° 0 mm 1 mps 703 mmHg 25%
    01:00 +20°C° 0 mm 1 mps 703 mmHg 26%
    02:00 +19°C° 0 mm 1 mps 703 mmHg 27%
    03:00 +18°C° 0 mm 1 mps 703 mmHg 27%
    04:00 +18°C° 0 mm 1 mps 703 mmHg 27%
    05:00 +18°C° 0 mm 1 mps 703 mmHg 28%
    06:00 +19°C° 0 mm 1 mps 703 mmHg 25%
    07:00 +20°C° 0 mm 2 mps 703 mmHg 22%
    08:00 +21°C° 0 mm 2 mps 703 mmHg 19%
    09:00 +24°C° 0 mm 2 mps 703 mmHg 17%
    10:00 +25°C° 0 mm 2 mps 703 mmHg 16%
    11:00 +26°C° 0 mm 2 mps 703 mmHg 14%
    12:00 +27°C° 0 mm 2 mps 703 mmHg 13%
    13:00 +27°C° 0 mm 3 mps 703 mmHg 13%
    14:00 +28°C° 0 mm 3 mps 702 mmHg 13%
    15:00 +28°C° 0 mm 3 mps 702 mmHg 13%
    16:00 +27°C° 0 mm 3 mps 702 mmHg 14%
    17:00 +27°C° 0 mm 3 mps 701 mmHg 14%
    18:00 +26°C° 0 mm 3 mps 701 mmHg 15%
    19:00 +25°C° 0 mm 2 mps 701 mmHg 17%
    20:00 +24°C° 0 mm 2 mps 701 mmHg 18%
    21:00 +23°C° 0 mm 2 mps 701 mmHg 20%
    22:00 +23°C° 0 mm 2 mps 701 mmHg 21%
    23:00 +22°C° 0 mm 1 mps 701 mmHg 23%

    Tomorrow, 26 April, Friday

    Time Temperature Precipitation Wind Pressure Humidity
    00:00 +21°C° 0 mm 1 mps 701 mmHg 25%
    01:00 +21°C° 0 mm 1 mps 701 mmHg 26%
    02:00 +20°C° 0 mm 1 mps 700 mmHg 28%
    03:00 +19°C° 0 mm 1 mps 700 mmHg 30%
    04:00 +19°C° 0 mm 1 mps 700 mmHg 31%
    05:00 +18°C° 0 mm 1 mps 700 mmHg 33%
    06:00 +20°C° 0 mm 1 mps 700 mmHg 28%
    07:00 +21°C° 0 mm 2 mps 701 mmHg 24%
    08:00 +23°C° 0 mm 2 mps 701 mmHg 20%
    09:00 +24°C° 0 mm 2 mps 701 mmHg 18%
    10:00 +26°C° 0 mm 2 mps 701 mmHg 16%
    11:00 +27°C° 0 mm 2 mps 701 mmHg 14%
    12:00 +27°C° 0 mm 2 mps 700 mmHg 14%
    13:00 +28°C° 0 mm 3 mps 700 mmHg 14%
    14:00 +28°C° 0 mm 3 mps 699 mmHg 13%
    15:00 +28°C° 0 mm 3 mps 699 mmHg 14%
    16:00 +28°C° 0 mm 3 mps 699 mmHg 14%
    17:00 +27°C° 0 mm 3 mps 698 mmHg 15%
    18:00 +27°C° 0 mm 3 mps 699 mmHg 16%
    19:00 +26°C° 0 mm 3 mps 699 mmHg 17%
    20:00 +25°C° 0 mm 3 mps 699 mmHg 19%
    21:00 +24°C° 0 mm 2 mps 699 mmHg 21%
    22:00 +23°C° 0 mm 2 mps 699 mmHg 22%
    23:00 +21°C° 0 mm 2 mps 699 mmHg 24%

    Day after tomorrow, 27 April, Saturday

    Time Temperature Precipitation Wind Pressure Humidity
    00:00 +21°C° 0 mm 2 mps 699 mmHg 25%
    01:00 +20°C° 0 mm 2 mps 699 mmHg 26%
    02:00 +20°C° 0 mm 2 mps 698 mmHg 27%
    03:00 +19°C° 0 mm 2 mps 698 mmHg 27%
    04:00 +19°C° 0 mm 2 mps 698 mmHg 27%
    05:00 +19°C° 0 mm 2 mps 698 mmHg 27%
    06:00 +20°C° 0 mm 2 mps 698 mmHg 24%
    07:00 +22°C° 0 mm 3 mps 699 mmHg 21%
    08:00 +24°C° 0 mm 3 mps 699 mmHg 18%
    09:00 +26°C° 0 mm 3 mps 699 mmHg 17%
    10:00 +27°C° 0 mm 2 mps 699 mmHg 15%
    11:00 +28°C° 0 mm 2 mps 699 mmHg 14%
    12:00 +28°C° 0 mm 3 mps 699 mmHg 14%
    13:00 +29°C° 0 mm 3 mps 698 mmHg 13%
    14:00 +30°C° 0 mm 4 mps 698 mmHg 13%
    15:00 +29°C° 0 mm 4 mps 698 mmHg 14%
    16:00 +29°C° 0 mm 5 mps 698 mmHg 14%
    17:00 +28°C° 0 mm 5 mps 697 mmHg 15%
    18:00 +27°C° 0 mm 4 mps 698 mmHg 18%
    19:00 +26°C° 0 mm 3 mps 698 mmHg 21%
    20:00 +25°C° 0 mm 3 mps 698 mmHg 24%
    21:00 +24°C° 0 mm 2 mps 699 mmHg 27%
    22:00 +23°C° 0 mm 2 mps 699 mmHg 30%
    23:00 +22°C° 0 mm 1 mps 699 mmHg 32%

    28 April, Sunday

    Time Temperature Precipitation Wind Pressure Humidity
    00:00 +21°C° 0 mm 1 mps 698 mmHg 34%
    01:00 +20°C° 0 mm 1 mps 698 mmHg 36%
    02:00 +20°C° 0 mm 1 mps 698 mmHg 38%
    03:00 +19°C° 0 mm 1 mps 698 mmHg 40%
    04:00 +19°C° 0 mm 1 mps 698 mmHg 41%
    05:00 +16°C° 0 mm 0 mps 698 mmHg 42%
    06:00 +18°C° 0 mm 0 mps 698 mmHg 37%
    07:00 +21°C° 0 mm 1 mps 699 mmHg 32%
    08:00 +23°C° 0 mm 1 mps 699 mmHg 27%
    09:00 +24°C° 0 mm 1 mps 700 mmHg 24%
    10:00 +26°C° 0 mm 1 mps 700 mmHg 21%
    11:00 +27°C° 0 mm 2 mps 700 mmHg 18%
    12:00 +28°C° 0 mm 2 mps 700 mmHg 16%
    13:00 +29°C° 0 mm 3 mps 699 mmHg 15%
    14:00 +29°C° 0 mm 3 mps 699 mmHg 13%
    15:00 +29°C° 0 mm 3 mps 699 mmHg 13%
    16:00 +29°C° 0 mm 3 mps 699 mmHg 13%
    17:00 +28°C° 0 mm 3 mps 699 mmHg 13%
    18:00 +27°C° 0 mm 3 mps 699 mmHg 16%
    19:00 +26°C° 0 mm 2 mps 699 mmHg 18%
    20:00 +25°C° 0 mm 2 mps 699 mmHg 20%
    21:00 +24°C° 0 mm 2 mps 699 mmHg 23%
    22:00 +23°C° 0 mm 1 mps 699 mmHg 27%
    23:00 +23°C° 0 mm 1 mps 699 mmHg 30%

    29 April, Monday

    Time Temperature Precipitation Wind Pressure Humidity
    00:00 +22°C° 0 mm 1 mps 699 mmHg 32%
    01:00 +21°C° 0 mm 1 mps 699 mmHg 34%
    02:00 +21°C° 0 mm 1 mps 698 mmHg 36%
    03:00 +20°C° 0 mm 1 mps 698 mmHg 36%
    04:00 +18°C° 0 mm 0 mps 698 mmHg 35%
    05:00 +17°C° 0 mm 0 mps 698 mmHg 35%
    06:00 +19°C° 0 mm 0 mps 699 mmHg 28%
    07:00 +21°C° 0 mm 0 mps 700 mmHg 22%
    08:00 +23°C° 0 mm 0 mps 700 mmHg 16%
    09:00 +27°C° 0 mm 1 mps 700 mmHg 14%
    10:00 +28°C° 0 mm 1 mps 700 mmHg 13%
    11:00 +29°C° 0 mm 2 mps 700 mmHg 11%
    12:00 +30°C° 0 mm 3 mps 700 mmHg 11%
    13:00 +30°C° 0 mm 3 mps 699 mmHg 11%
    14:00 +32°C° 0 mm 4 mps 699 mmHg 11%
    15:00 +32°C° 0 mm 4 mps 699 mmHg 12%
    16:00 +30°C° 0 mm 4 mps 699 mmHg 13%
    17:00 +30°C° 0 mm 4 mps 698 mmHg 14%
    18:00 +28°C° 0 mm 4 mps 699 mmHg 17%
    19:00 +27°C° 0 mm 3 mps 699 mmHg 20%
    20:00 +26°C° 0 mm 3 mps 699 mmHg 22%
    21:00 +25°C° 0 mm 2 mps 699 mmHg 25%
    22:00 +24°C° 0 mm 2 mps 699 mmHg 27%
    23:00 +23°C° 0 mm 1 mps 699 mmHg 30%

    30 April, Tuesday

    Time Temperature Precipitation Wind Pressure Humidity
    00:00 +23°C° 0 mm 1 mps 699 mmHg 32%
    01:00 +22°C° 0 mm 1 mps 699 mmHg 34%
    02:00 +21°C° 0 mm 1 mps 699 mmHg 35%
    03:00 +21°C° 0 mm 1 mps 699 mmHg 36%
    04:00 +20°C° 0 mm 1 mps 699 mmHg 37%
    05:00 +19°C° 0 mm 1 mps 699 mmHg 38%
    06:00 +21°C° 0 mm 1 mps 699 mmHg 33%
    07:00 +21°C° 0 mm 2 mps 700 mmHg 29%
    08:00 +23°C° 0 mm 2 mps 700 mmHg 24%
    09:00 +25°C° 0 mm 3 mps 700 mmHg 20%
    10:00 +26°C° 0 mm 3 mps 700 mmHg 16%
    11:00 +27°C° 0 mm 3 mps 700 mmHg 12%
    12:00 +28°C° 0 mm 4 mps 700 mmHg 11%
    13:00 +28°C° 0 mm 4 mps 699 mmHg 11%
    14:00 +28°C° 0 mm 5 mps 699 mmHg 10%
    15:00 +28°C° 0 mm 4 mps 699 mmHg 11%
    16:00 +27°C° 0 mm 4 mps 699 mmHg 11%
    17:00 +27°C° 0 mm 4 mps 699 mmHg 12%
    18:00 +26°C° 0 mm 4 mps 699 mmHg 14%
    19:00 +25°C° 0 mm 3 mps 699 mmHg 16%
    20:00 +24°C° 0 mm 3 mps 699 mmHg 17%
    21:00 +23°C° 0 mm 2 mps 699 mmHg 20%
    22:00 +21°C° 0 mm 2 mps 699 mmHg 22%
    23:00 +20°C° 0 mm 2 mps 699 mmHg 24%
    Show more